This demonstration page uses our WeatherBlox Daily Observations layout. Learn more.

Left ArrowRight Arrow

44.8408, -93.29828

Hourly Observations for July 23, 2021

Temp ( °F °C ) Dew Point ( °F °C ) Humidity (%) Winds ( mph kmh ) Pressure ( in mb ) Visibility ( mi km ) Precip ( " mm )
12:53 am 00:53 Clear 75 23.9 67 19.4 76 76 SSE 6 9 29.98 1015 8 13 0.00 0.00
1:53 am 01:53 Clear 74 23.3 67 19.4 79 79 SSE 7 11 29.97 1015 7 11 0.00 0.00
2:53 am 02:53 Clear 74 23.3 67 19.4 79 79 SSE 6 9 29.96 1014 7 11 0.00 0.00
3:53 am 03:53 Partly Cloudy 76 24.4 65 18.3 69 69 SSW 9 15 29.96 1014 7 11 0.00 0.00
4:53 am 04:53 Partly Cloudy 76 24.4 65 18.3 69 69 SSW 7 11 29.95 1014 7 11 0.00 0.00
5:53 am 05:53 Mostly Cloudy 75 23.9 65 18.3 71 71 S 8 13 29.96 1015 7 11 0.00 0.00
6:53 am 06:53 Mostly Cloudy with Haze 76 24.4 65 18.3 69 69 S 9 15 29.94 1014 6 10 0.00 0.00
7:53 am 07:53 Hazy 78 25.6 64 17.8 62 62 SSW 12 19 29.94 1014 6 10 0.00 0.00
8:53 am 08:53 Partly Cloudy 80 26.7 65 18.3 60 60 SW 9 15 29.95 1014 7 11 0.00 0.00
9:53 am 09:53 Sunny 83 28.3 66 18.9 57 57 S 9 15 29.93 1014 7 11 0.00 0.00
10:53 am 10:53 Sunny 86 30 66 18.9 51 51 S 9 15 29.92 1013 7 11 0.00 0.00
11:53 am 11:53 Sunny 89 31.7 66 18.9 47 47 SSW 10 17 29.91 1013 8 13 0.00 0.00
12:53 pm 12:53 Sunny 91 32.8 66 18.9 44 44 SSW 8 13 29.89 1012 8 13 0.00 0.00
1:53 pm 13:53 Mostly Cloudy 93 33.9 68 20 44 44 S 12 19 29.87 1012 9 14 0.00 0.00
2:53 pm 14:53 Mostly Cloudy 93 33.9 69 20.6 46 46 S 12 19 29.87 1011 9 14 0.00 0.00
3:53 pm 15:53 Mostly Cloudy 92 33.3 69 20.6 47 47 S 12 19 29.86 1011 9 14 0.00 0.00
4:53 pm 16:53 Cloudy 90 32.2 71 21.7 54 54 SSW 9 15 29.86 1011 9 14 0.00 0.00
5:53 pm 17:53 Mostly Cloudy 90 32.2 72 22.2 56 56 SSW 15 24 29.84 1011 9 14 0.00 0.00
6:53 pm 18:53 Partly Cloudy 89 31.7 73 22.8 59 59 SSW 15 24 29.83 1010 8 13 0.00 0.00
7:53 pm 19:53 Partly Cloudy 88 31.1 74 23.3 63 63 SSW 10 17 29.82 1010 8 13 0.00 0.00
8:53 pm 20:53 Partly Cloudy 87 30.6 73 22.8 63 63 SSW 9 15 29.82 1010 8 13 0.00 0.00
9:53 pm 21:53 Mostly Clear 86 30 73 22.8 65 65 SSW 8 13 29.82 1010 10 16 0.00 0.00
10:53 pm 22:53 Partly Cloudy 85 29.4 73 22.8 68 68 SW 9 15 29.81 1009 10 16 0.00 0.00
11:53 pm 23:53 Mostly Cloudy 85 29.4 73 22.8 68 68 WSW 10 17 29.80 1009 10 16 0.00 0.00

Powered by AerisWeather